CDT,Max TemperatureF,Mean TemperatureF,Min TemperatureF,Max Dew PointF,MeanDew PointF,Min DewpointF,Max Humidity, Mean Humidity, Min Humidity, Max Sea Level PressureIn, Mean Sea Level PressureIn, Min Sea Level PressureIn, Max VisibilityMiles, Mean VisibilityMiles, Min VisibilityMiles, Max Wind SpeedMPH, Mean Wind SpeedMPH, Max Gust SpeedMPH,PrecipitationIn, CloudCover, Events, WindDirDegrees
2013-4-1,39,28,16,22,16,12,88,68,34,30.36,30.28,30.20,10,10,10,13,8,17,0.00,0,Thunderstorm,344
2013-4-2,52,34,17,25,20,15,89,59,30,30.30,30.26,30.20,10,10,7,14,3,18,0.00,3,,153
2013-4-3,59,44,28,26,24,22,79,51,24,30.29,30.22,30.13,10,10,10,23,12,30,0.00,0,,181
2013-4-4,61,48,35,33,25,10,78,49,13,30.15,30.11,30.08,10,10,10,17,10,24,0.00,2,,346
2013-4-5,68,48,28,35,30,24,86,55,24,30.17,29.95,29.65,10,10,10,29,11,34,0.00,1,,142
2013-4-6,70,54,39,48,38,32,97,57,26,29.80,29.65,29.57,10,10,7,25,15,39,0.01,2,Rain,280
2013-4-7,67,48,31,51,40,31,100,80,32,29.85,29.76,29.64,10,8,0,20,4,28,0.00,4,Fog-Rain,114
2013-4-8,74,53,32,55,44,32,100,77,31,29.79,29.68,29.63,10,6,0,28,4,34,0.00,4,Fog-Rain-Thunderstorm,79
2013-4-9,45,38,29,46,35,29,99,96,91,30.06,29.88,29.68,10,5,0,29,21,43,1.56,8,Rain-Snow-Thunderstorm,15
2013-4-10,32,30,29,32,31,29,100,98,95,30.03,29.93,29.82,10,5,1,6,2,,0.05,8,Rain-Snow,4
2013-4-11,34,31,28,31,29,28,99,92,84,29.81,29.68,29.63,10,8,1,18,5,25,0.00,8,Rain-Snow,313
2013-4-12,34,32,28,31,27,24,96,83,70,30.00,29.87,29.73,10,10,5,20,15,29,0.00,8,,316
2013-4-13,46,34,23,38,32,22,94,81,70,30.00,29.86,29.64,10,10,7,24,7,30,0.00,4,,150
2013-4-14,56,47,38,51,40,32,96,78,47,29.66,29.47,29.28,10,10,4,33,21,38,0.19,3,Rain,189
2013-4-15,47,38,30,32,27,21,88,66,49,30.09,29.87,29.66,10,10,10,22,13,30,0.00,2,,300
2013-4-16,49,40,32,30,28,24,92,65,38,30.24,30.18,30.10,10,10,7,17,6,22,0.00,4,,24
2013-4-17,38,36,33,37,34,30,98,91,71,30.21,30.02,29.87,10,6,1,21,15,30,0.20,8,Rain-Snow-Thunderstorm,24
2013-4-18,33,32,30,32,30,24,98,92,75,29.93,29.83,29.77,10,3,0,29,21,37,0.00,8,Snow,331
2013-4-19,42,34,26,27,22,18,86,66,44,30.10,29.95,29.85,10,10,10,22,16,30,0.00,1,,315
2013-4-20,43,32,21,28,23,20,96,71,48,30.24,30.17,30.10,10,10,10,16,4,20,0.00,4,,128
2013-4-21,63,48,34,48,37,26,88,66,41,30.17,30.06,30.00,10,10,5,25,11,32,0.01,4,Rain,229
2013-4-22,41,36,30,38,33,27,99,93,85,30.28,30.12,30.05,10,7,0,24,13,30,0.19,8,Rain-Snow,16
2013-4-23,34,30,25,27,23,20,93,77,65,30.29,30.23,30.17,10,10,10,18,13,25,0.00,3,,338
2013-4-24,56,39,23,35,27,20,93,69,35,30.17,30.11,30.02,10,10,10,22,6,36,0.00,1,,259
2013-4-25,70,48,25,36,29,24,96,57,20,30.21,30.10,29.92,10,10,10,28,8,36,0.00,0,,203
2013-4-26,75,58,43,41,32,25,72,38,16,30.17,30.05,29.95,10,10,7,21,13,26,0.00,0,,116
2013-4-27,77,56,36,53,41,30,100,58,18,30.17,30.03,29.90,10,9,0,17,6,17,0.00,1,Fog,186
2013-4-28,86,66,46,50,43,34,92,51,16,29.92,29.78,29.65,10,10,7,23,10,29,0.00,0,,191
2013-4-29,82,65,48,46,41,37,82,49,20,29.83,29.67,29.46,10,10,10,14,9,17,0.00,0,,132
2013-4-30,70,60,50,53,38,13,68,44,12,30.03,29.71,29.42,10,10,7,25,13,31,0.02,1,Rain-Thunderstorm,349